Regional Weather Roundup
Issued by NWS Wakefield, VA

Home | Current Version | Previous Version | Text Only | Print | Product List | Glossary Off
Versions: 1 2 3 4 5 6 7 8 9 10 11 12 13 14 15 16 17 18 19 20 21 22 23 24 25 26 27 28 29 30 31 32 33 34 35 36 37 38 39 40 41 42 43 44 45 46 47 48 49 50

000
ASUS41 KAKQ 282215
RWRAKQ

REGIONAL WEATHER ROUNDUP
NATIONAL WEATHER SERVICE WAKEFIELD VA
600 PM EDT THU MAY 28 2015

Note: "fair" indicates few or no clouds below 12,000 feet with no
significant weather and/or obstructions to visibility. * = Denotes
station may not report precipitation (e.g., rain,snow,etc.),
thunder or fog.

VAZ042-051-052>054-056-282300-
NORTHERN VIRGINIA

CITY           SKY/WX    TMP DP  RH WIND       PRES   REMARKS
WASH NATIONAL  TSTM      84  64  51 SW16G23   30.14S
DULLES         PTSUNNY   82  64  54 SW16      30.16R
FORT BELVOIR   LGT RAIN  84  69  59 W5        30.14S
QUANTICO       PTSUNNY   80  64  58 SW5       30.16S
FREDERICKSBRG* MOSUNNY   87  62  43 CALM      30.14S
STAFFORD*      PTSUNNY   83  68  61 W3        30.20R
WARRENTON      PTSUNNY   83  69  61 N6        30.17S
CULPEPER*      PTSUNNY   83  61  46 S3        30.17S
MANASSAS*      PTSUNNY   73  64  73 W20G26    30.17R
LEESBURG*      PTSUNNY   86  66  51 CALM      30.16F
WINCHESTER     CLOUDY    86  52  30 E6        30.17S
FRONT ROYAL*   MOCLDY    82  66  57 SE3       30.16S
LURAY*         LGT RAIN  82  68  61 E3        30.18R
$$

VAZ048-049-060>072-079>083-282300-
CENTRAL AND SOUTH CENTRAL VIRGINIA

CITY           SKY/WX    TMP DP  RH WIND       PRES   REMARKS
RICHMOND       PTSUNNY   87  66  49 SE8       30.14F
CHESTERFIELD*  NOT AVBL
PETERSBURG*    SUNNY     87  71  58 SE5       30.16S
HANOVER        MOSUNNY   85  69  58 VRB5      30.17S THUNDER
TAPPAHANNOCK*  MOSUNNY   81  64  55 CALM      30.16F
QUINTON*       FAIR      85  68  56 S6        30.15F
CHARLOTTSVILLE PTSUNNY   77  63  61 N9        30.19R
GORDONSVILLE*  CLOUDY    70  68  93 CALM      30.18R
ORANGE*        PTSUNNY   73  68  83 SW3       30.20R
LOUISA*        DRIZZLE   77  70  78 N9        30.16S
BUMPASS*       FAIR      82  69  66 CALM      30.16R
FARMVILLE*     PTSUNNY   84  67  55 CALM      30.14S THUNDER
CREWE*         FAIR      85  66  52 S6        30.15S
FORT PICKETT*  NOT AVBL
CHASE CITY*    FAIR      88  69  52 S7        30.15S
CLARKSVILLE*   FAIR      86  64  48 S3        30.15S
SOUTH HILL*    SUNNY     84  66  54 CALM      30.21S
LAWRENCEVILLE* FAIR      84  66  54 S3        30.15S
EMPORIA*       SUNNY     84  68  58 E5        30.17S
$$

VAZ088>098-282300-
SOUTHEAST VIRGINIA

CITY           SKY/WX    TMP DP  RH WIND       PRES   REMARKS
NORFOLK        LGT RAIN  77  70  79 E5        30.16F
VIRGINIA BEACH PTSUNNY   83  67  58 SE15      30.16F
NORFOLK NAVAL  PTSUNNY   83  69  62 SE8       30.17F
WEST POINT*    MOSUNNY   86  68  54 SE9       30.17F
SALUDA*        FAIR      81  71  70 SE6       30.16F
NEWPORT NEWS   PTSUNNY   85  69  58 SE5       30.17F
LANGLEY AFB    MOSUNNY   77  71  81 E6        30.16S
FORT EUSTIS    PTSUNNY   80  76  88 SE6       30.15S
WILLIAMSBURG*  MOSUNNY   86  73  66 SE8       30.17S
HR EXEC AP*    FAIR      82  66  57 S5        30.18S
FRANKLIN*      PTSUNNY   82  69  66 SE3       30.16F
WAKEFIELD      MOSUNNY   86  68  54 S3        30.15F
$$

VAZ020-022-025-037-045-282300-
WEST CENTRAL AND SOUTHWEST VIRGINIA

CITY           SKY/WX    TMP DP  RH WIND       PRES   REMARKS
STAUNTON*      PTSUNNY   82  65  56 SE6       30.22R
WAYNESBORO*    MOCLDY    77  64  65 SE9       30.21S
HOT SPRINGS VA PTSUNNY   70  58  67 CALM      30.31F
LYNCHBURG      PTSUNNY   78  66  66 NE6       30.19S
DANVILLE       MOSUNNY   79  66  64 W9        30.16S
SOUTH BOSTON*  FAIR      83  64  53 SE6       30.14F
MARTINSVILLE   PTSUNNY   77  68  74 NW3       30.21S
ROANOKE        CLOUDY    83  61  47 E8        30.20S
BLACKSBURG     RAIN      71  67  89 CALM      30.28S
DUBLIN*        PTSUNNY   77  63  61 E8        30.25S
MARION*        PTSUNNY   78  59  52 CALM      30.26F
HILLSVILLE*    NOT AVBL
RICHLANDS*     FAIR      75  64  67 N3        30.24F
WISE*          PTSUNNY   77  63  61 N6        30.26F
ABINGDON*      PTSUNNY   73  62  67 W7        30.24R
$$

MDZ021>025-VAZ099-100-282300-
SOUTHERN MARYLAND AND THE DELMARVA PENINSULA

CITY           SKY/WX    TMP DP  RH WIND       PRES   REMARKS
PATUXENT RIVER PTSUNNY   80  70  71 SE8       30.15F
BAY BRIDGE APT   N/A    N/A N/A N/A S7        30.14F
LEONARDTOWN    MOSUNNY   82  70  65 S7        30.17S
DOVER          LGT RAIN  73  68  83 N2        30.13S
GEORGETOWN     PTSUNNY   84  67  56 SW12      30.15F
EASTON         MOSUNNY   86  70  58 W8        30.18F
CAMBRIDGE      PTSUNNY   81  70  69 S6        30.15F
SALISBURY      PTSUNNY   80  68  66 S8        30.16F
OCEAN CITY     PTSUNNY   74  65  73 SW14G23   30.18F
WALLOPS ISLAND PTSUNNY   73  65  75 S16       30.19F
ACCOMACK*      CLOUDY    73  68  83 S8        30.18F
$$

NCZ012>017-030>032-282300-
NORTH CENTRAL AND EASTERN NORTH CAROLINA

CITY           SKY/WX    TMP DP  RH WIND       PRES   REMARKS
ROANOKE RAPIDS FAIR      81  68  65 S10       30.16S
RALEIGH        MOSUNNY   85  66  53 CALM      30.15F
ELIZABETH CITY MOSUNNY   82  66  58 SE9       30.18F
AHOSKIE*       SUNNY     78  70  77 CALM      30.17S
EDENTON*         N/A     82  66  59 S9        30.18S
CURRITUCK*     MOSUNNY   81  64  55 SE6       30.19F
KILL DEVIL HLS MOSUNNY   79  63  56 S5G16     30.19F
MANTEO         MOSUNNY   77  64  62 S13       30.21S
CAPE HATTERAS  SUNNY     79  59  50 SE5       30.22S
TARBORO*       MOCLDY    87  68  52 SE5       30.16F
GOLDSBORO      MOSUNNY   86  67  53 VRB2      30.13F
WASHINGTON     SUNNY     82  66  57 SE10      30.18S
GREENVILLE     MOSUNNY   82  68  61 SE7       30.17F
NEW BERN       SUNNY     83  64  52 SE12      30.19F
WILMINGTON     SUNNY     79  62  56 SE8       30.18F
$$

VAZ048-282300-
ELSEWHERE

CITY           SKY/WX    TMP DP  RH WIND       PRES   REMARKS
HARRISBURG PA  PTSUNNY   83  56  39 NW8       30.15F
BALTIMORE      PTSUNNY   86  66  51 VRB3      30.13S
ANNAPOLIS      PTSUNNY   80  62  54 S9        30.14F
ANDREWS AFB    NOT AVBL
PHILADELPHIA   CLOUDY    84  64  50 SW10      30.13F
HENDERSON NC   SUNNY     85  62  45 S7        30.16S
GREENSBORO     PTSUNNY   85  61  44 SE8       30.16F
ROCKY MOUNT    MOSUNNY   85  69  58 SE7       30.16F
$$

VAZ100-282300-
MARINE

STATION/POSITION TIME  TEMP    WIND        PRES    WAVE   SWELL
                       AIR SEA DIR/SP/G            HT/PER HT/PER
                 (UTC) (F)     (DEG/KT/KT) (MB)    (FT/S) (FT/S)
BRANDYWINE LGT   2100   68 66  170/ 18/ 19 1020.9F
CAPE MAY NJ      2100   70 72  160/ 13/ 17 1020.8F
LEWES DE         2100   82 67  180/  7/ 11 1020.9F
15NM E FENWICK I 2150   67 63              1021.5F   3/ 8
OCEAN-CITY-INLET 2100   64 57  210/ 12/ 15 1022.0F
WACHAPREAGUE VA  2100   73 77  200/ 11/ 13 1022.6S
THOMAS POINT MD  2200   73 74  190/ 10/ 10 1021.1F
GOOSES REEF MD   2200   73 71  170/ 12/ 14 1021.9F   1/ 2
COVE POINT MD    2100   73     190/ 13/ 15 1022.1F
SOLOMONS ISLAND  2100      71                N/A
BISHOPS HEAD MD  2100   76 82  160/ 12/ 13 1021.4F
PINEY POINT MD   2100          180/  5/  6   N/A
CAMBRIDGE MD     2100   80 73  360/  3/  4 1021.0F
LEWISETTA VA     2100   76 77              1021.1F
RAPPAHANNOCK LGT 2100          140/ 10/ 11 1022.6R
STINGRAY PT      2200   74 74  170/ 14/ 16 1021.8F   2/ 2
YORK RVR RNG VA  2100   75      CALM  /  1 1021.2F
YORKTOWN VA      2100   72 71   CALM  /  3 1021.3F
JAMESTOWN VA     2200   80 78  120/  8/ 10 1020.3F
DOMINION TERM VA 2100   80      50/  7/ 12 1022.1R
KIPTOPEKE VA     2100      79  170/ 15/ 17   N/A
CHES BAY BRIDGE  2100   77 71  130/  9/ 14 1021.6S
CAPE HENRY VA    2100   74     210/  3/  7 1021.1R
CHESAPEAKE LGHT  2100   68     170/ 22/ 23 1022.7R
WILLOUBY STN VA  2100   77      90/ 10/ 11 1022.4F
CAPE HENRY BUOY  2128      62                N/A     3/ 8
1ST LANDING BUOY 2200      71              1021.2F
CAPE CHARLES BUO 2126      70                N/A     3/ 8   2/ 8
OFFSHORE WE BUOY 2111      66                N/A     3/ 8   3/ 8
64NM E OF VA BCH 2150   69 66  160/  6/  8 1022.9F   3/ 8   3/ 8
DUCK PIER NC     2100   72 57  140/ 16/ 17 1021.7F
44100 DUCK FRF   2124      67                N/A     2/ 7
44056 DUCK FRF   2111      63                N/A     2/ 8
OREGON INLET NC  2100   76 78  190/  9/ 12 1023.3F
HATTERAS NC      2100   77 76  160/  6/  8 1023.0F
DIAMOND SHLS NC  2150   75 78  130/  6/  8 1023.2F   3/ 8   3/ 8
CAPE LOOKOUT NC  2200   75     160/  3/  4 1022.6F
$$



USA.gov is the U.S. government's official web portal to all federal, state and local government web resources and services.